| time (UTC) | temp F | wind direction | speed knots | gust knots | rain 1hr in | rain 24hr in | rain mn in | humidity % | barometer mb |
| 20260507141928 | 69 | 0.0 | 0.0 | 0.00 | 0.00 | 0.00 | 63 | 1012.7 | |
| 20260507135926 | 68 | 0.0 | 0.0 | 0.00 | 0.00 | 0.00 | 64 | 1013.0 | |
| 20260507133925 | 70 | 0.0 | 0.0 | 0.00 | 0.00 | 0.00 | 59 | 1013.0 | |
| 20260507131924 | 70 | 0.0 | 0.0 | 0.00 | 0.00 | 0.00 | 59 | 1013.2 | |
| 20260507125923 | 70 | 0.0 | 0.0 | 0.00 | 0.00 | 0.00 | 60 | 1013.1 | |
| 20260507123921 | 69 | 0.0 | 0.0 | 0.00 | 0.00 | 0.00 | 61 | 1013.1 | |
| 20260507121919 | 69 | 0.0 | 0.0 | 0.00 | 0.00 | 0.00 | 61 | 1012.9 | |
| 20260507115918 | 69 | 0.0 | 0.0 | 0.00 | 0.00 | 0.00 | 60 | 1013.0 | |
| 20260507113917 | 69 | 0.0 | 0.0 | 0.00 | 0.00 | 0.00 | 61 | 1013.0 | |
| 20260507111916 | 69 | 0.0 | 0.0 | 0.00 | 0.00 | 0.00 | 61 | 1013.2 | |
| 20260507105914 | 71 | 0.0 | 0.0 | 0.00 | 0.00 | 0.00 | 59 | 1013.2 | |
| 20260507103913 | 71 | 0.0 | 0.0 | 0.00 | 0.00 | 0.00 | 59 | 1013.3 | |
| 20260507101911 | 70 | 0.0 | 0.0 | 0.00 | 0.00 | 0.00 | 59 | 1013.5 | |
| 20260507095910 | 68 | 0.0 | 0.0 | 0.00 | 0.00 | 0.00 | 63 | 1013.2 | |
| 20260507093909 | 68 | 0.0 | 0.0 | 0.00 | 0.00 | 0.00 | 64 | 1013.2 | |
| 20260507091908 | 67 | 0.0 | 0.0 | 0.00 | 0.00 | 0.00 | 68 | 1013.0 | |
| 20260507085906 | 66 | 0.0 | 0.0 | 0.00 | 0.00 | 0.00 | 69 | 1012.9 | |
| 20260507083905 | 66 | 0.0 | 0.0 | 0.00 | 0.00 | 0.00 | 67 | 1012.6 | |
| 20260507081904 | 67 | 0.0 | 0.0 | 0.00 | 0.00 | 0.00 | 65 | 1012.5 | |
| 20260507075902 | 66 | 0.0 | 0.0 | 0.00 | 0.00 | 0.00 | 65 | 1012.4 | |
| 20260507073901 | 65 | 0.0 | 0.0 | 0.00 | 0.00 | 0.00 | 66 | 1012.3 | |
| 20260507071900 | 64 | 0.0 | 0.0 | 0.00 | 0.00 | 0.00 | 69 | 1012.2 | |
| 20260507065859 | 63 | 0.0 | 0.0 | 0.00 | 0.00 | 0.00 | 69 | 1012.1 | |
| 20260507063857 | 62 | 0.0 | 0.0 | 0.00 | 0.00 | 0.00 | 71 | 1011.9 | |
| 20260507061856 | 61 | 0.0 | 0.0 | 0.00 | 0.00 | 0.00 | 76 | 1011.9 | |
| 20260507055855 | 61 | 0.0 | 0.0 | 0.00 | 0.00 | 0.00 | 74 | 1011.7 | |
| 20260507053853 | 61 | 0.0 | 0.0 | 0.00 | 0.00 | 0.00 | 79 | 1011.6 | |
| 20260507051852 | 61 | 0.0 | 0.0 | 0.00 | 0.00 | 0.00 | 78 | 1011.4 | |
| 20260507045851 | 61 | 0.0 | 0.0 | 0.00 | 0.00 | 0.00 | 72 | 1011.1 | |
| 20260507043849 | 61 | 0.0 | 0.0 | 0.00 | 0.00 | 0.00 | 80 | 1010.9 | |
| 20260507041848 | 59 | 0.0 | 0.0 | 0.00 | 0.00 | 0.00 | 83 | 1010.8 | |
| 20260507035847 | 60 | 0.0 | 0.0 | 0.00 | 0.00 | 0.00 | 81 | 1010.7 | |
| 20260507033845 | 60 | 0.0 | 0.0 | 0.00 | 0.00 | 0.00 | 81 | 1010.6 | |
| 20260507031844 | 59 | 0.0 | 0.0 | 0.00 | 0.00 | 0.00 | 84 | 1010.5 | |
| 20260507025843 | 60 | 0.0 | 0.0 | 0.00 | 0.00 | 0.00 | 82 | 1010.5 | |
| 20260507023842 | 60 | 0.0 | 0.0 | 0.00 | 0.00 | 0.00 | 82 | 1010.6 | |
| 20260507021840 | 60 | 0.0 | 0.0 | 0.00 | 0.00 | 0.00 | 81 | 1010.5 | |
| 20260507015839 | 60 | 0.0 | 0.0 | 0.00 | 0.00 | 0.00 | 81 | 1010.4 | |
| 20260507013838 | 59 | 0.0 | 0.0 | 0.00 | 0.00 | 0.00 | 81 | 1010.2 | |
| 20260507011836 | 60 | 0.0 | 0.0 | 0.00 | 0.00 | 0.00 | 81 | 1010.1 | |
| 20260507005835 | 60 | 0.0 | 0.0 | 0.00 | 0.00 | 0.00 | 82 | 1010.4 | |
| 20260507003834 | 60 | 0.0 | 0.0 | 0.00 | 0.00 | 0.00 | 81 | 1010.4 | |
| 20260507001832 | 61 | 0.0 | 0.0 | 0.00 | 0.00 | 0.00 | 81 | 1010.2 | |
| 20260506235831 | 61 | 0.0 | 0.0 | 0.00 | 0.00 | 0.00 | 80 | 1010.2 | |
| 20260506233830 | 61 | 0.0 | 0.0 | 0.00 | 0.00 | 0.00 | 81 | 1009.9 | |
| 20260506231829 | 62 | 0.0 | 0.0 | 0.00 | 0.00 | 0.00 | 78 | 1010.1 | |
| 20260506225827 | 63 | 0.0 | 0.0 | 0.00 | 0.00 | 0.00 | 75 | 1010.0 | |
| 20260506223826 | 62 | 0.0 | 0.0 | 0.00 | 0.00 | 0.00 | 78 | 1009.9 | |
| 20260506221825 | 63 | 0.0 | 0.0 | 0.00 | 0.00 | 0.00 | 76 | 1009.9 | |
| 20260506215823 | 62 | 0.0 | 0.0 | 0.00 | 0.00 | 0.00 | 77 | 1009.9 | |
| 20260506213822 | 62 | 0.0 | 0.0 | 0.00 | 0.00 | 0.00 | 77 | 1009.9 | |
| 20260506211821 | 62 | 0.0 | 0.0 | 0.00 | 0.00 | 0.00 | 78 | 1009.8 | |
| 20260506205820 | 63 | 0.0 | 0.0 | 0.00 | 0.00 | 0.00 | 76 | 1009.6 | |
| 20260506203818 | 62 | 0.0 | 0.0 | 0.00 | 0.00 | 0.00 | 76 | 1009.6 | |
| 20260506201817 | 63 | 0.0 | 0.0 | 0.00 | 0.00 | 0.00 | 74 | 1009.4 | |
| 20260506195816 | 64 | 0.0 | 0.0 | 0.00 | 0.00 | 0.00 | 72 | 1009.2 | |
| 20260506193814 | 63 | 0.0 | 0.0 | 0.00 | 0.00 | 0.00 | 74 | 1008.7 | |
| 20260506191813 | 64 | 0.0 | 0.0 | 0.00 | 0.00 | 0.00 | 71 | 1008.4 | |
| 20260506185812 | 64 | 0.0 | 0.0 | 0.00 | 0.00 | 0.00 | 70 | 1008.2 | |
| 20260506183810 | 64 | 0.0 | 0.0 | 0.00 | 0.00 | 0.00 | 69 | 1007.8 | |
| 20260506181809 | 64 | 0.0 | 0.0 | 0.00 | 0.00 | 0.00 | 71 | 1007.5 | |
| 20260506175808 | 64 | 0.0 | 0.0 | 0.00 | 0.00 | 0.00 | 71 | 1007.1 | |
| 20260506173806 | 65 | 0.0 | 0.0 | 0.00 | 0.00 | 0.00 | 66 | 1007.0 | |
| 20260506171805 | 66 | 0.0 | 0.0 | 0.00 | 0.00 | 0.00 | 60 | 1006.9 | |
| 20260506165804 | 66 | 0.0 | 0.0 | 0.00 | 0.00 | 0.00 | 58 | 1006.9 | |
| 20260506163802 | 66 | 0.0 | 0.0 | 0.00 | 0.00 | 0.00 | 58 | 1006.6 | |
| 20260506161801 | 67 | 0.0 | 0.0 | 0.00 | 0.00 | 0.00 | 63 | 1006.7 | |
| 20260506155800 | 67 | 0.0 | 0.0 | 0.00 | 0.00 | 0.00 | 62 | 1006.8 | |
| 20260506153758 | 68 | 0.0 | 0.0 | 0.00 | 0.00 | 0.00 | 63 | 1006.5 | |
| 20260506151757 | 68 | 0.0 | 0.0 | 0.00 | 0.00 | 0.00 | 62 | 1006.6 | |
| 20260506145756 | 68 | 0.0 | 0.0 | 0.00 | 0.00 | 0.00 | 61 | 1006.6 | |
| 20260506143754 | 68 | 0.0 | 0.0 | 0.00 | 0.00 | 0.00 | 58 | 1006.6 |